This demonstration page uses our WeatherBlox Daily Observations layout. Learn more.

Left ArrowRight Arrow

39.08367, -84.50855

Hourly Observations for April 27, 2019

Temp ( °F °C ) Dew Point ( °F °C ) Humidity (%) Winds ( mph kmh ) Pressure ( in mb ) Visibility ( mi km ) Precip ( " mm )
12:53 am 00:53 Clear 53 11.7 34 1.1 48 48 W 7 11 29.91 1013 10 16.0934 0 0
1:53 am 01:53 Clear 51 10.6 34 1.1 52 52 W 7 11 29.93 1013 10 16.0934 0 0
2:53 am 02:53 Clear 49 9.4 35 1.7 59 59 W 6 9 29.92 1013 10 16.0934 0 0
3:53 am 03:53 Clear 44 6.7 40 4.4 85 85 Calm 29.93 1014 10 16.0934 0 0
4:53 am 04:53 Clear 41 5 39 3.9 93 93 Calm 29.93 1014 10 16.0934 0 0
5:53 am 05:53 Clear 40 4.4 38 3.3 93 93 Calm 29.94 1014 10 16.0934 0 0
6:53 am 06:53 Sunny 39 3.9 38 3.3 96 96 Calm 29.96 1015 10 16.0934 0 0
7:53 am 07:53 Sunny 44 6.7 41 5 89 89 Calm 29.98 1015 10 16.0934 0 0
8:53 am 08:53 Sunny 51 10.6 41 5 69 69 Calm 29.99 1016 10 16.0934 0 0
9:53 am 09:53 Sunny 56 13.3 35 1.7 46 46 Calm 29.97 1015 10 16.0934 0 0
10:53 am 10:53 Sunny 57 13.9 36 2.2 45 45 Calm 29.97 1015 10 16.0934 0 0
11:53 am 11:53 Mostly Cloudy 58 14.4 36 2.2 44 44 S 3 6 29.96 1015 10 16.0934 0 0
12:53 pm 12:53 Sunny 63 17.2 37 2.8 38 38 S 8 13 29.94 1014 10 16.0934 0 0
1:53 pm 13:53 Mostly Sunny 65 18.3 40 4.4 40 40 SSW 10 17 29.91 1013 10 16.0934 0 0
2:53 pm 14:53 Cloudy 60 15.6 39 3.9 46 46 SE 6 9 29.88 1012 10 16.0934 0 0
3:53 pm 15:53 Cloudy with Light Rain 56 13.3 39 3.9 53 53 SW 18 30 29.91 1013 7 11.26538 0 0.0254
4:53 pm 16:53 Cloudy with Light Rain 54 12.2 47 8.3 77 77 SSE 8 13 29.9 1013 7 11.26538 0.02 0.508
5:53 pm 17:53 Cloudy with Light Rain 53 11.7 48 8.9 83 83 Calm 29.88 1012 10 16.0934 0.01 0.254
6:53 pm 18:53 Cloudy with Light Rain 52 11.1 47 8.3 83 83 S 6 9 29.84 1011 8 12.87472 0.02 0.508
7:53 pm 19:53 Cloudy with Light Rain 51 10.6 46 7.8 83 83 VRB 3 6 29.8 1009 10 16.0934 0.03 0.762
8:53 pm 20:53 Cloudy 51 10.6 47 8.3 86 86 Calm 29.78 1009 10 16.0934 0.01 0.254
9:53 pm 21:53 Cloudy 51 10.6 46 7.8 83 83 SE 3 6 29.78 1008 10 16.0934 0 0
10:53 pm 22:53 Cloudy 51 10.6 46 7.8 83 83 VRB 7 11 29.74 1007 10 16.0934 0 0
11:53 pm 23:53 Partly Cloudy 51 10.6 45 7.2 80 80 S 9 15 29.7 1006 10 16.0934 0 0

Powered by AerisWeather